Weather History for Kalaeloa, HI

Change the Weather History Date:

Tuesday, December 3, 2013

  Actual Average (PHNL) Record (PHNL)
Temperature  
Mean Temperature 72 °F 76 °F  
Max Temperature 79 °F 82 °F 87 °F (1983)
Min Temperature 66 °F 70 °F 61 °F (1980)
Degree Days  
Heating Degree Days 0 0  
Month to date heating degree days 0  
Since 1 July heating degree days 0  
Cooling Degree Days 8 11  
Month to date cooling degree days 33  
Year to date cooling degree days 4359  
Growing Degree Days 22 (Base 50)    
Moisture  
Dew Point 67 °F    
Average Humidity 86    
Maximum Humidity 100    
Minimum Humidity 72    
Precipitation  
Precipitation 0.00 in 0.08 in 3.76 in (1950)
Month to date precipitation 0.23  
Year to date precipitation 14.09  
Snow  
Snow 0.00 in - - ()
Month to date snowfall  
Since 1 July snowfall  
Snow Depth -    
Sea Level Pressure  
Sea Level Pressure 29.98 in    
Wind  
Wind Speed 2 mph (SE)    
Max Wind Speed 10 mph    
Max Gust Speed -    
Visibility 10 miles    
Events Rain    
T = Trace of Precipitation, MM = Missing Value Source: NWS Daily Summary

Daily Weather History Graph

Daily Weather History Graph

Search for Another Location

Airport:

Trip Planner

Search our weather history database for the weather conditions in past years. The results will help you decide how hot, cold, wet, or windy it might be!

Date:

Astronomy

Dec. 03, 2013 Rise Set
Actual Time 6:54 AM HST 5:49 PM HST
Civil Twilight 6:30 AM HST 6:13 PM HST
Nautical Twilight 6:03 AM HST 6:41 PM HST
Astronomical Twilight 5:36 AM HST 7:08 PM HST
Moon 7:38 AM HST (12/3) 7:02 PM HST (12/3)
Length of Visible Light 11h 42m
Length of Day
10h 54m
New Moon, 1% of the Moon is Illuminated
Dec 3
New Moon
Dec 9
First Quarter
Dec 16
Full
Dec 25
Last Quarter
Jan 1
New

Hourly Weather History & Observations

Time (HST) Temp. Dew Point Humidity Pressure Visibility Wind Dir Wind Speed Gust Speed Precip Events Conditions
12:53 AM 66.9 °F 66.0 °F 97% 30.00 in 10.0 mi NNE 3.5 mph - N/A   Clear
1:53 AM 66.9 °F 66.0 °F 97% 29.99 in 10.0 mi Calm Calm - N/A   Clear
2:53 AM 66.9 °F 66.0 °F 97% 29.98 in 10.0 mi Calm Calm - N/A   Clear
3:53 AM 66.9 °F 66.0 °F 97% 29.98 in 10.0 mi Calm Calm - N/A   Mostly Cloudy
4:53 AM 66.9 °F 66.0 °F 97% 29.97 in 10.0 mi Calm Calm - N/A   Scattered Clouds
5:53 AM 66.9 °F 66.0 °F 97% 29.97 in 10.0 mi Calm Calm - N/A   Partly Cloudy
6:53 AM 66.9 °F 66.9 °F 100% 29.99 in 10.0 mi Calm Calm - N/A   Clear
7:53 AM 69.1 °F 68.0 °F 96% 30.00 in 10.0 mi Calm Calm - N/A   Clear
8:53 AM 75.0 °F 70.0 °F 84% 30.02 in 10.0 mi Variable 3.5 mph - N/A   Clear
9:23 AM 75.2 °F 69.8 °F 83% 30.00 in 10.0 mi Calm Calm - N/A   Partly Cloudy
9:53 AM 77.0 °F 69.1 °F 76% 30.02 in 10.0 mi ESE 3.5 mph - N/A   Clear
10:53 AM 78.1 °F 70.0 °F 76% 30.01 in 10.0 mi ESE 5.8 mph - N/A   Partly Cloudy
11:53 AM 79.0 °F 70.0 °F 74% 29.98 in 10.0 mi SE 8.1 mph - N/A   Partly Cloudy
12:53 PM 79.0 °F 69.1 °F 72% 29.94 in 10.0 mi SE 9.2 mph - N/A   Partly Cloudy
1:53 PM 78.1 °F 69.1 °F 74% 29.92 in 10.0 mi SSE 10.4 mph - N/A   Mostly Cloudy
2:53 PM 77.0 °F 68.0 °F 74% 29.92 in 10.0 mi SSE 8.1 mph - N/A   Scattered Clouds
3:53 PM 75.9 °F 68.0 °F 76% 29.92 in 10.0 mi SSE 6.9 mph - N/A   Overcast
4:53 PM 75.0 °F 68.0 °F 79% 29.94 in 10.0 mi South 5.8 mph - N/A   Overcast
5:53 PM 75.0 °F 69.1 °F 82% 29.96 in 10.0 mi Calm Calm - N/A   Overcast
6:02 PM 73.4 °F 69.8 °F 88% 29.94 in 10.0 mi NNW 6.9 mph - 0.00 in Rain Light Rain
6:12 PM 73.4 °F 69.8 °F 88% 29.94 in 10.0 mi NNW 4.6 mph - 0.00 in Rain Light Rain
6:53 PM 73.9 °F 68.0 °F 82% 29.98 in 10.0 mi Calm Calm - 0.00 in   Overcast
7:53 PM 71.1 °F 66.9 °F 87% 29.99 in 10.0 mi Calm Calm - N/A   Mostly Cloudy
8:53 PM 70.0 °F 66.0 °F 87% 30.01 in 10.0 mi Calm Calm - N/A   Clear
9:53 PM 68.0 °F 64.9 °F 90% 30.03 in 10.0 mi Calm Calm - N/A   Clear
10:34 PM 68.0 °F 64.4 °F 88% 30.01 in 10.0 mi Calm Calm - N/A   Scattered Clouds
10:53 PM 68.0 °F 64.0 °F 87% 30.03 in 10.0 mi ENE 3.5 mph - N/A   Partly Cloudy
11:53 PM 66.9 °F 64.0 °F 90% 30.01 in 10.0 mi Calm Calm - N/A   Partly Cloudy